DW8007 Weather Reports


time (UTC)temp
C
wind
direction
speed
KPH
gust
KPH
rain 1hr
cm
rain 24hr
cm
rain mn
cm
humidity
%
barometer
mb
20260507023204 23 346 8.0 19.3 0.00 0.10 0.10 77 1008.1
20260507022704 23 338 9.7 19.3 0.00 0.10 0.10 77 1008.2
20260507021203 23 332 11.3 20.9 0.00 0.10 0.10 77 1008.0
20260507020703 24 331 11.3 20.9 0.00 0.10 0.10 77 1007.7
20260507015704 24 338 9.7 19.3 0.00 0.10 0.10 78 1007.4
20260507014204 25 333 9.7 22.5 0.00 0.10 0.10 79 1007.0
20260507013704 26 297 4.8 14.5 0.00 0.10 0.10 83 1006.8
20260507013204 26 317 4.8 8.0 0.00 0.10 0.10 90 1006.7
20260507012704 26 26 0.0 4.8 0.00 0.10 0.10 89 1006.4
20260507012203 26 11 1.6 4.8 0.00 0.10 0.10 90 1006.2
20260507011704 26 152 0.0 4.8 0.00 0.10 0.10 89 1006.1
20260507011204 26 210 0.0 4.8 0.00 0.10 0.10 89 1005.8
20260507010704 26 74 1.6 4.8 0.00 0.10 0.10 89 1005.9
20260507010204 26 65 1.6 4.8 0.00 0.10 0.10 89 1005.5
20260507005703 27 13 0.0 4.8 0.00 0.10 0.10 88 1005.5
20260507005204 27 74 1.6 4.8 0.00 0.10 0.10 88 1005.7
20260507004703 27 77 0.0 4.8 0.00 0.10 0.10 87 1005.7
20260507004204 27 227 1.6 3.2 0.00 0.10 0.10 87 1005.8
20260507003703 27 60 1.6 3.2 0.00 0.10 0.10 87 1005.8
20260507003203 27 271 0.0 3.2 0.00 0.10 0.10 86 1005.8
20260507002203 27 83 1.6 4.8 0.00 0.10 0.10 86 1005.8
20260507001704 27 43 0.0 3.2 0.00 0.10 0.10 85 1005.6
20260507001204 27 39 1.6 4.8 0.00 0.10 0.10 85 1005.6
20260507000703 27 338 0.0 4.8 0.00 0.10 0.10 85 1005.5
20260507000205 27 340 1.6 4.8 0.00 0.10 0.10 84 1005.3
20260506235704 28 277 1.6 4.8 0.00 0.10 0.10 84 1005.3
20260506234703 28 22 1.6 4.8 0.00 0.10 0.10 83 1005.2
20260506234204 28 166 3.2 4.8 0.00 0.10 0.10 82 1005.3
20260506233203 28 135 1.6 4.8 0.00 0.10 0.10 82 1005.1
20260506232704 28 46 1.6 4.8 0.00 0.10 0.10 82 1005.2
20260506231704 28 222 1.6 3.2 0.00 0.10 0.10 82 1005.0
20260506231204 28 22 1.6 4.8 0.00 0.10 0.10 83 1004.9
20260506230703 28 89 1.6 4.8 0.00 0.10 0.10 82 1005.0
20260506225703 28 123 3.2 8.0 0.00 0.10 0.10 81 1004.8
20260506225204 28 151 1.6 8.0 0.00 0.10 0.10 84 1004.8
20260506224203 28 67 3.2 9.7 0.00 0.10 0.10 84 1004.8
20260506223703 28 63 3.2 9.7 0.00 0.10 0.10 83 1004.9
20260506222704 28 251 1.6 12.9 0.00 0.10 0.10 83 1004.7
20260506220203 30 74 4.8 11.3 0.00 0.10 0.10 78 1004.6
20260506215704 30 53 3.2 9.7 0.00 0.10 0.10 76 1004.5
20260506215203 31 201 1.6 3.2 0.00 0.10 0.10 74 1004.6
20260506214204 30 354 1.6 3.2 0.00 0.10 0.10 74 1004.6
20260506213704 30 3 1.6 8.0 0.00 0.10 0.10 73 1004.6
20260506213204 30 355 1.6 8.0 0.00 0.10 0.10 72 1004.8
20260506212204 30 233 0.0 8.0 0.00 0.10 0.10 74 1004.8
20260506211704 30 2 3.2 8.0 0.00 0.10 0.10 75 1004.6
20260506211203 30 353 3.2 9.7 0.00 0.10 0.10 75 1004.6
20260506210704 30 330 3.2 9.7 0.00 0.10 0.10 76 1004.7
20260506210204 30 45 4.8 9.7 0.00 0.10 0.10 74 1004.7
20260506205704 30 46 3.2 9.7 0.00 0.10 0.10 76 1004.8
20260506205204 30 332 4.8 9.7 0.00 0.10 0.10 74 1004.9
20260506204204 30 25 3.2 9.7 0.00 0.10 0.10 75 1004.8
20260506203703 30 340 6.4 9.7 0.00 0.10 0.10 76 1004.9
20260506203203 30 351 3.2 8.0 0.00 0.10 0.10 77 1005.1
20260506202204 30 277 3.2 8.0 0.00 0.10 0.10 77 1005.1
20260506201704 29 18 0.0 4.8 0.00 0.10 0.10 78 1005.2
20260506200704 29 177 1.6 9.7 0.00 0.10 0.10 78 1005.2
20260506200204 29 160 3.2 8.0 0.00 0.10 0.10 78 1005.3
20260506195704 29 179 3.2 8.0 0.00 0.10 0.10 80 1005.3
20260506195203 29 158 1.6 8.0 0.00 0.10 0.10 79 1005.5
20260506194703 29 169 3.2 8.0 0.00 0.10 0.10 79 1005.6
20260506194203 29 178 3.2 8.0 0.00 0.10 0.10 79 1005.9
20260506193704 28 195 3.2 8.0 0.00 0.10 0.10 81 1005.7
20260506193204 28 189 3.2 8.0 0.00 0.10 0.10 81 1005.9
20260506192703 28 175 3.2 8.0 0.00 0.10 0.10 81 1006.0
20260506192204 29 189 3.2 8.0 0.00 0.10 0.10 79 1005.9
20260506191704 28 194 1.6 8.0 0.00 0.10 0.10 81 1006.1
20260506191203 28 142 3.2 8.0 0.00 0.10 0.10 81 1006.1
20260506190703 28 129 1.6 4.8 0.00 0.10 0.10 82 1006.1
20260506190203 28 187 3.2 4.8 0.00 0.10 0.10 82 1006.1
20260506184204 28 187 1.6 4.8 0.00 0.10 0.10 83 1006.2
20260506183704 28 151 1.6 4.8 0.00 0.10 0.10 82 1006.3
20260506182704 28 152 1.6 8.0 0.00 0.10 0.10 83 1006.2
20260506182204 27 160 3.2 8.0 0.00 0.10 0.10 84 1006.5
20260506181203 28 199 1.6 8.0 0.00 0.10 0.10 83 1006.7
20260506180703 28 139 1.6 8.0 0.00 0.10 0.10 84 1006.9
20260506180203 27 10 0.0 3.2 0.00 0.10 0.10 84 1006.8
20260506175703 27 337 0.0 3.2 0.00 0.10 0.10 84 1006.8
20260506175204 27 319 0.0 3.2 0.00 0.10 0.10 85 1006.7
20260506174703 27 210 1.6 4.8 0.00 0.10 0.10 84 1006.7
20260506174203 27 294 1.6 4.8 0.00 0.10 0.10 84 1006.8
20260506173704 27 193 3.2 4.8 0.00 0.10 0.10 83 1006.8
20260506173204 27 1 1.6 3.2 0.00 0.10 0.10 86 1007.0
20260506172704 27 188 0.0 3.2 0.00 0.10 0.10 86 1006.9
20260506171703 27 211 0.0 4.8 0.00 0.10 0.10 87 1007.0
20260506171204 27 171 0.0 3.2 0.00 0.10 0.10 87 1007.0
20260506170704 27 146 0.0 3.2 0.00 0.10 0.10 86 1006.9
20260506170204 27 176 1.6 4.8 0.00 0.10 0.10 86 1006.9
20260506165704 27 340 0.0 4.8 0.00 0.10 0.10 87 1007.0
20260506165204 27 196 3.2 4.8 0.00 0.10 0.10 86 1006.9
20260506164703 27 190 3.2 4.8 0.00 0.10 0.10 87 1006.7
20260506164204 27 304 1.6 4.8 0.00 0.10 0.10 88 1007.0
20260506163704 27 193 1.6 4.8 0.00 0.10 0.10 87 1006.8
20260506163204 27 204 1.6 4.8 0.00 0.10 0.10 88 1006.8
20260506162704 27 199 1.6 4.8 0.00 0.10 0.10 88 1006.8
20260506162204 27 304 1.6 4.8 0.00 0.10 0.10 88 1006.8
20260506161703 27 202 3.2 3.2 0.00 0.10 0.10 88 1006.5
20260506161204 27 233 1.6 3.2 0.00 0.10 0.10 88 1006.6
20260506160704 26 213 1.6 4.8 0.00 0.10 0.10 89 1006.6
20260506160204 26 201 1.6 4.8 0.00 0.10 0.10 90 1006.4
20260506155704 26 35 1.6 8.0 0.00 0.10 0.10 90 1006.3
20260506154703 26 226 0.0 4.8 0.00 0.10 0.10 89 1006.1
20260506154203 26 33 1.6 8.0 0.00 0.10 0.10 89 1006.1
20260506153704 26 58 1.6 8.0 0.00 0.10 0.10 90 1006.3
20260506153204 26 319 1.6 9.7 0.00 0.10 0.10 91 1006.0
20260506152703 26 50 1.6 9.7 0.00 0.10 0.10 91 1005.9
20260506152203 26 61 3.2 8.0 0.00 0.10 0.10 92 1006.1
20260506151703 26 58 3.2 8.0 0.00 0.10 0.10 91 1006.0
20260506151204 26 307 1.6 8.0 0.00 0.10 0.10 92 1005.9
20260506150704 26 61 3.2 8.0 0.00 0.10 0.10 93 1005.9
20260506145704 25 274 1.6 4.8 0.00 0.10 0.10 94 1005.9
20260506145204 25 271 1.6 4.8 0.00 0.10 0.10 94 1005.7
20260506144703 25 128 0.0 4.8 0.00 0.10 0.10 94 1005.6
20260506143703 25 30 1.6 4.8 0.03 0.10 0.10 95 1005.7
20260506143204 25 339 0.0 4.8 0.03 0.10 0.10 95 1005.6
20260506142704 25 73 1.6 4.8 0.03 0.10 0.10 96 1005.6
20260506142204 25 104 1.6 4.8 0.00 0.10 0.10 96 1005.7
20260506141704 25 347 0.0 4.8 0.00 0.10 0.10 95 1005.8
20260506141204 25 282 1.6 4.8 0.00 0.10 0.10 96 1005.8
20260506140704 25 42 1.6 4.8 0.00 0.10 0.10 96 1005.4
20260506140204 25 69 0.0 3.2 0.03 0.10 0.10 95 1005.4
20260506135704 25 270 0.0 3.2 0.03 0.10 0.10 96 1005.6
20260506135204 25 117 1.6 3.2 0.03 0.10 0.10 95 1005.4
20260506134704 24 233 1.6 3.2 0.03 0.10 0.10 95 1005.5
20260506134204 24 223 0.0 3.2 0.03 0.08 0.08 95 1005.6
20260506133704 24 237 0.0 3.2 0.03 0.08 0.08 95 1005.7
20260506132703 24 89 1.6 4.8 0.03 0.08 0.08 95 1005.6
20260506132203 24 116 0.0 4.8 0.03 0.08 0.08 95 1005.7
20260506131703 24 172 1.6 4.8 0.03 0.08 0.08 95 1005.7
20260506131203 24 319 0.0 3.2 0.03 0.08 0.08 95 1005.7
20260506130704 24 38 0.0 3.2 0.03 0.08 0.08 95 1005.7
20260506130204 24 59 1.6 4.8 0.03 0.08 0.08 95 1005.5
20260506125703 24 325 0.0 4.8 0.03 0.08 0.08 96 1005.6
20260506125204 24 79 1.6 4.8 0.03 0.08 0.08 96 1005.5
20260506124704 24 358 0.0 4.8 0.03 0.08 0.05 96 1005.6
20260506124204 24 94 1.6 3.2 0.03 0.08 0.05 96 1005.4
20260506123703 24 37 0.0 3.2 0.03 0.08 0.05 96 1005.6
20260506122203 24 351 1.6 3.2 0.03 0.05 0.05 96 1005.7
20260506121704 24 331 1.6 3.2 0.03 0.05 0.05 96 1005.5
20260506120704 24 161 0.0 3.2 0.03 0.05 0.05 96 1005.4
20260506120203 24 5 0.0 3.2 0.03 0.05 0.05 96 1005.5
20260506115704 24 295 1.6 4.8 0.03 0.05 0.05 96 1005.5
20260506115204 24 57 1.6 4.8 0.03 0.05 0.05 96 1005.2
20260506114703 24 67 0.0 3.2 0.03 0.05 0.05 96 1005.4
20260506113704 24 61 1.6 3.2 0.03 0.05 0.03 96 1005.1
20260506113203 24 169 0.0 1.6 0.03 0.05 0.03 96 1005.1
20260506112705 24 51 0.0 3.2 0.03 0.05 0.03 96 1005.0
20260506112204 24 239 0.0 3.2 0.03 0.05 0.03 96 1005.1
20260506111704 24 324 0.0 1.6 0.00 0.03 0.03 96 1005.0
20260506111203 24 85 0.0 1.6 0.00 0.03 0.03 96 1005.0
20260506110703 24 217 0.0 1.6 0.00 0.03 0.03 96 1005.1
20260506104703 24 303 0.0 1.6 0.00 0.03 0.00 96 1004.9
20260506104203 24 71 0.0 1.6 0.00 0.03 0.00 96 1004.9
20260506103704 24 288 0.0 1.6 0.00 0.03 0.00 96 1004.8
20260506103203 24 203 0.0 1.6 0.00 0.03 0.00 95 1005.0
20260506102704 24 49 0.0 1.6 0.00 0.03 0.00 95 1005.1
20260506102204 24 276 0.0 1.6 0.00 0.03 0.00 95 1005.0
20260506101704 24 314 0.0 1.6 0.00 0.03 0.00 95 1005.1
20260506100703 24 75 0.0 3.2 0.00 0.03 0.00 95 1004.9
20260506100204 24 94 0.0 3.2 0.00 0.03 0.00 95 1004.8
20260506095704 24 129 1.6 3.2 0.00 0.03 0.00 95 1004.9
20260506094703 24 291 0.0 1.6 0.00 0.03 0.00 95 1004.8
20260506094204 24 94 0.0 3.2 0.00 0.00 0.00 95 1004.8
20260506093704 24 322 0.0 3.2 0.00 0.00 0.00 95 1004.7
20260506093203 24 107 0.0 3.2 0.00 0.00 0.00 95 1004.7
20260506092704 24 30 0.0 1.6 0.00 0.00 0.00 95 1004.9
20260506091703 24 193 0.0 3.2 0.00 0.00 0.00 94 1004.9
20260506091204 24 176 1.6 3.2 0.00 0.00 0.00 95 1004.8
20260506090704 24 49 0.0 3.2 0.00 0.00 0.00 94 1004.8
20260506090203 24 180 1.6 3.2 0.00 0.00 0.00 94 1004.8
20260506085704 24 137 0.0 1.6 0.00 0.00 0.00 94 1004.6
20260506085203 24 229 0.0 1.6 0.00 0.00 0.00 94 1004.6
20260506084704 24 279 0.0 1.6 0.00 0.00 0.00 94 1004.7
20260506084203 25 68 0.0 3.2 0.00 0.00 0.00 93 1004.8
20260506083703 25 53 0.0 3.2 0.00 0.00 0.00 93 1004.8
20260506083204 25 149 0.0 3.2 0.00 0.00 0.00 93 1004.7
20260506082203 25 162 0.0 3.2 0.00 0.00 0.00 93 1004.8
20260506081704 25 130 0.0 1.6 0.00 0.00 0.00 92 1004.8
20260506081203 25 186 0.0 1.6 0.00 0.00 0.00 92 1004.6
20260506080704 25 160 0.0 3.2 0.00 0.00 0.00 92 1004.8
20260506080204 25 129 0.0 3.2 0.00 0.00 0.00 93 1005.1
20260506073203 25 200 0.0 4.8 0.00 0.00 0.00 90 1005.1
20260506072204 25 170 1.6 4.8 0.00 0.00 0.00 91 1005.2
20260506071704 25 4 0.0 4.8 0.00 0.00 0.00 91 1005.2
20260506071204 25 48 0.0 4.8 0.00 0.00 0.00 90 1005.4
20260506070204 25 142 1.6 4.8 0.00 0.00 0.00 91 1005.5
20260506061703 25 154 0.0 4.8 0.00 0.00 0.00 90 1006.0
20260506061204 25 173 0.0 4.8 0.00 0.00 0.00 90 1006.1
20260506060204 25 155 1.6 3.2 0.00 0.00 0.00 90 1006.0
20260506050704 25 179 3.2 8.0 0.00 0.00 0.00 90 1005.4
20260506050204 25 172 1.6 8.0 0.00 0.00 0.00 89 1005.7
20260506044704 25 157 1.6 4.8 0.00 0.00 0.00 89 1005.6
20260506043704 25 168 3.2 8.0 0.00 0.00 0.00 89 1005.4
20260506043204 25 174 3.2 8.0 0.00 0.00 0.00 89 1005.4
20260506042703 25 152 1.6 8.0 0.00 0.00 0.00 89 1005.3
20260506041703 25 157 1.6 8.0 0.00 0.00 0.00 89 1005.1
20260506041203 25 180 3.2 9.7 0.00 0.00 0.00 89 1005.2
20260506040203 25 173 1.6 8.0 0.00 0.00 0.00 89 1005.3
20260506035703 25 139 1.6 8.0 0.00 0.00 0.00 89 1005.1
20260506035204 25 153 3.2 8.0 0.00 0.00 0.00 89 1005.2
20260506034204 25 173 3.2 8.0 0.00 0.00 0.00 89 1005.1
20260506033704 25 158 3.2 8.0 0.00 0.00 0.00 89 1005.0
20260506033204 25 156 1.6 4.8 0.00 0.00 0.00 89 1005.1
20260506032704 25 115 1.6 8.0 0.00 0.00 0.00 89 1005.1
20260506032204 25 171 1.6 8.0 0.00 0.00 0.00 88 1005.1
20260506031703 25 153 1.6 8.0 0.00 0.00 0.00 88 1005.1
20260506031203 25 150 1.6 8.0 0.00 0.00 0.00 88 1005.2
20260506030703 25 152 1.6 8.0 0.00 0.00 0.00 88 1005.2
20260506030203 25 162 3.2 8.0 0.00 0.00 0.00 88 1004.8
20260506025704 25 165 1.6 4.8 0.00 0.00 0.00 89 1004.8
20260506025204 25 148 1.6 8.0 0.00 0.00 0.00 89 1004.7
20260506024704 25 141 3.2 8.0 0.00 0.00 0.00 89 1004.8
20260506024204 25 164 1.6 4.8 0.00 0.00 0.00 88 1004.5